Timestamp[UTC];2m Lufttemperatur [degC] (tas);Stations-Luftdruck [Pa] (ps);relative Luftfeuchtigkeit [%] (hurs);spezifische Luftfeuchtigkeit [kg/kg] (huss);Niederschlagsmenge [mm] (pr);Windgeschwindigkeit in 2m [m/s] (sfcWind);Windrichtung [deg];maximale Windgeschwindigkeit [m/s] (wsgsmax);u-Windkomponente [m/s] (uas);v-Windkomponente [m/s] (vas);Sonneneinstrahlung [W/m2];Blitzrate [n];Blitzentfernung [km];Bodenfeuchte in 5cm Tiefe [vol%];Bodenfeuchte in 15cm Tiefe [vol%];Bodenfeuchte in 30cm Tiefe [vol%];Bodenfeuchte in 60cm Tiefe [vol%];Bodentemperatur in 5cm Tiefe [degC];Bodentemperatur in 15cm Tiefe [degC];Bodentemperatur in 30cm Tiefe [degC];Bodentemperatur in 60cm Tiefe [degC];Matrixpotential in 30cm Tiefe [kPa];Bodenfeuchte aus CRNS [vol%] (mrso);Neutronen Anzahl [N/h]
2022-05-01 00:00:00;5,8;100253;80;0,0046;0,0;1,9;258;2,9;-0,36;-1,87;0;0;0;30,5;30,7;30,3;31,3;10,4;11,2;11,2;10,4;-25,2;24,7;1544
2022-05-01 01:00:00;5,6;100242;81;0,0046;0,0;1,8;260;3,0;-0,29;-1,76;0;0;0;30,4;30,7;30,3;31,3;10,1;11,0;11,2;10,4;-25,2;24,7;1575
2022-05-01 02:00:00;4,9;100232;84;0,0045;0,0;1,2;212;2,0;0,25;-0,95;0;0;0;30,4;30,7;30,3;31,3;9,9;10,8;11,1;10,4;-25,2;25,2;1525
2022-05-01 03:00:00;4,6;100208;85;0,0045;0,0;1,4;282;2,2;0,11;-1,25;0;0;0;30,4;30,7;30,3;31,3;9,6;10,6;11,0;10,4;-25,2;25,3;1571
2022-05-01 04:00:00;5,0;100198;88;0,0047;0,0;0,9;330;1,6;0,44;-0,42;9;0;0;30,4;30,7;30,3;31,3;9,4;10,4;10,9;10,4;-25,2;25,0;1546
2022-05-01 05:00:00;5,0;100205;89;0,0048;0,0;0,6;282;1,0;0,45;-0,03;39;0;0;30,4;30,7;30,3;31,3;9,3;10,2;10,9;10,4;-25,2;24,9;1634
2022-05-01 06:00:00;5,3;100210;91;0,005;0,0;0,5;70;1,2;0,15;0,47;77;0;0;30,4;30,7;30,3;31,3;9,3;10,1;10,8;10,4;-25,2;24,9;1601
2022-05-01 07:00:00;7,7;100207;88;0,0057;0,0;1,8;325;3,8;1,46;-0,98;170;0;0;30,5;30,7;30,3;31,3;9,4;10,0;10,7;10,4;-25,2;25,1;1511
2022-05-01 08:00:00;9,2;100188;84;0,0061;0,0;1,7;330;3,3;1,5;-0,84;327;0;0;30,3;30,7;30,3;31,3;9,8;10,0;10,6;10,4;-25,1;25,2;1544
2022-05-01 09:00:00;11,1;100158;74;0,0061;0,0;2,6;346;4,7;2,46;-0,6;400;0;0;30,4;30,7;30,3;31,3;10,6;10,2;10,6;10,4;-25,1;25,2;1612
2022-05-01 10:00:00;12,5;100128;63;0,0057;0,0;2,5;176;5,3;2,43;-0,15;441;0;0;30,3;30,7;30,3;31,3;11,4;10,5;10,5;10,4;-25,2;25,1;1533
2022-05-01 11:00:00;13,8;100062;58;0,0057;0,0;2,5;181;5,7;2,46;0,07;612;0;0;30,1;30,7;30,3;31,3;12,3;10,9;10,5;10,4;-25,2;25,3;1550
2022-05-01 12:00:00;13,5;100035;58;0,0056;0,0;2,5;348;4,4;2,49;-0,5;236;0;0;29,9;30,6;30,3;31,3;13,1;11,3;10,5;10,4;-25,3;25,1;1539
2022-05-01 13:00:00;13,7;99993;56;0,0055;0,0;2,6;240;4,6;2,57;-0,02;348;0;0;29,8;30,6;30,3;31,3;13,2;11,7;10,6;10,4;-25,3;25,2;1538
2022-05-01 14:00:00;14,1;99958;58;0,0058;0,0;2,3;341;4,8;2,23;-0,71;332;0;0;29,7;30,6;30,2;31,3;13,4;12,0;10,7;10,4;-25,3;25,1;1608
2022-05-01 15:00:00;13,9;99937;58;0,0058;0,0;2,8;351;4,8;2,75;-0,39;185;0;0;29,7;30,6;30,2;31,3;13,6;12,2;10,8;10,4;-25,3;25,1;1604
2022-05-01 16:00:00;13,6;99915;59;0,0057;0,0;3,0;348;4,7;2,91;-0,56;119;0;0;29,6;30,6;30,2;31,3;13,5;12,4;10,9;10,3;-25,3;25,1;1590
2022-05-01 17:00:00;12,8;99900;61;0,0056;0,0;2,3;347;3,6;2,29;-0,49;63;0;0;29,6;30,6;30,2;31,3;13,3;12,4;11,0;10,3;-25,3;25,2;1593
2022-05-01 18:00:00;12,0;99938;64;0,0057;0,0;1,9;343;2,9;1,78;-0,53;32;0;0;29,6;30,6;30,2;31,3;13,0;12,4;11,1;10,3;-25,4;25,3;1549
2022-05-01 19:00:00;10,7;99965;69;0,0055;0,0;1,4;301;2,0;0,7;-1,1;0;0;0;29,6;30,6;30,2;31,3;12,6;12,3;11,2;10,3;-25,4;25,4;1609
2022-05-01 20:00:00;9,8;99977;72;0,0054;0,0;1,4;257;1,9;-0,29;-1,33;0;0;0;29,5;30,6;30,2;31,3;12,1;12,2;11,2;10,3;-25,3;25,4;1600
2022-05-01 21:00:00;9,3;99970;73;0,0054;0,0;1,5;258;2,4;-0,3;-1,47;0;0;0;29,5;30,6;30,2;31,3;11,7;12,0;11,3;10,3;-25,4;25,2;1611
2022-05-01 22:00:00;9,8;99948;74;0,0055;0,0;1,3;274;2,3;0,12;-1,3;0;0;0;29,4;30,6;30,2;31,3;11,5;11,8;11,3;10,3;-25,4;25,4;1522
2022-05-01 23:00:00;9,1;99917;75;0,0054;0,0;1,3;270;2,0;0,02;-1,32;0;0;0;29,4;30,6;30,2;31,3;11,3;11,6;11,3;10,4;-25,4;25,3;1683
2022-05-02 00:00:00;8,3;99900;78;0,0053;0,0;1,3;266;2,1;-0,11;-1,3;0;0;0;29,4;30,6;30,2;31,3;11,1;11,5;11,2;10,3;-25,4;25,2;1567
2022-05-02 01:00:00;8,5;99860;78;0,0054;0,0;1,1;259;2,0;-0,19;-1,05;0;0;0;29,4;30,6;30,2;31,3;10,9;11,3;11,2;10,4;-25,4;25,0;1667
2022-05-02 02:00:00;8,4;99823;78;0,0054;0,0;1,1;260;1,9;-0,18;-1,05;0;0;0;29,3;30,6;30,2;31,3;10,8;11,2;11,2;10,4;-25,4;24,9;1585
2022-05-02 03:00:00;8,0;99808;81;0,0054;0,0;0,5;251;0,8;0,4;-0,08;0;0;0;29,4;30,6;30,2;31,3;10,6;11,1;11,1;10,4;-25,4;24,9;1631
2022-05-02 04:00:00;7,6;99788;83;0,0054;0,0;0,6;262;1,1;0,05;-0,38;4;0;0;29,4;30,6;30,2;31,3;10,5;11,0;11,1;10,4;-25,4;25,0;1571
2022-05-02 05:00:00;8,0;99790;82;0,0055;0,0;0,8;285;1,8;0,24;-0,8;44;0;0;29,4;30,6;30,2;31,3;10,4;10,9;11,1;10,4;-25,4;24,9;1645
2022-05-02 06:00:00;9,2;99782;80;0,0058;0,0;1,9;308;2,9;1,17;-1,43;138;0;0;29,4;30,6;30,2;31,3;10,5;10,9;11,0;10,4;-25,3;24,9;1598
2022-05-02 07:00:00;10,6;99755;78;0,0062;0,0;2,1;328;3,7;1,81;-1,12;281;0;0;29,4;30,6;30,2;31,2;10,7;10,8;11,0;10,4;-25,4;24,7;1574
2022-05-02 08:00:00;12,0;99740;74;0,0065;0,0;2,5;330;4,4;2,14;-1,23;401;0;0;29,3;30,6;30,2;31,3;11,1;10,9;10,9;10,4;-25,4;24,8;1684
2022-05-02 09:00:00;13,7;99720;70;0,0068;0,0;2,4;331;4,7;2,13;-1,15;519;0;0;29,1;30,6;30,2;31,3;11,8;11,1;10,9;10,4;-25,4;24,8;1583
2022-05-02 10:00:00;15,0;99693;66;0,007;0,0;2,4;323;4,9;1,89;-1,42;585;0;0;28,9;30,5;30,2;31,2;12,7;11,4;10,9;10,4;-25,5;25,0;1606
2022-05-02 11:00:00;16,2;99638;63;0,0072;0,0;2,3;336;4,7;2,11;-0,95;623;0;0;28,8;30,5;30,2;31,2;13,8;11,8;10,9;10,4;-25,6;24,9;1622
2022-05-02 12:00:00;17,2;99613;60;0,0073;0,0;2,6;340;5,2;2,42;-0,89;658;0;0;28,5;30,4;30,1;31,2;14,8;12,4;11,0;10,4;-25,7;25,1;1669
2022-05-02 13:00:00;17,6;99572;56;0,0071;0,0;2,7;170;6,8;2,6;-0,43;521;0;0;28,2;30,4;30,1;31,2;15,6;12,9;11,0;10,4;-25,8;24,4;1606
2022-05-02 14:00:00;17,9;99525;54;0,0069;0,0;2,3;250;4,6;2,07;-0,78;407;0;0;28,0;30,4;30,1;31,2;15,7;13,4;11,2;10,4;-25,8;24,6;1649
2022-05-02 15:00:00;18,4;99508;52;0,0069;0,0;2,7;261;5,2;2,6;-0,36;363;0;0;27,9;30,3;30,1;31,2;15,9;13,7;11,3;10,4;-25,9;24,6;1583
2022-05-02 16:00:00;17,0;99490;54;0,0066;0,0;2,6;347;4,5;2,53;-0,57;126;0;0;27,8;30,3;30,1;31,2;15,6;13,9;11,5;10,4;-25,9;24,3;1689
2022-05-02 17:00:00;17,4;99470;53;0,0066;0,0;3,0;179;4,9;2,9;0,01;132;0;0;27,8;30,3;30,1;31,2;15,2;13,9;11,7;10,4;-25,9;24,2;1672
2022-05-02 18:00:00;15,9;99505;55;0,0063;0,0;1,5;248;2,5;1,33;-0,31;24;0;0;27,7;30,3;30,1;31,2;14,8;13,9;11,8;10,4;-25,9;24,2;1645
2022-05-02 19:00:00;14,2;99542;62;0,0062;0,0;1,4;300;1,8;0,67;-1,12;0;0;0;27,7;30,3;30,1;31,2;14,3;13,7;11,9;10,4;-25,9;24,0;1618
2022-05-02 20:00:00;13,0;99580;67;0,0063;0,0;1,5;279;2,4;0,26;-1,44;0;0;0;27,7;30,3;30,1;31,2;13,8;13,6;12,0;10,5;-26,0;24,1;1624
2022-05-02 21:00:00;11,9;99612;69;0,006;0,0;1,5;269;2,2;-0,0;-1,47;0;0;0;27,7;30,3;30,1;31,2;13,4;13,4;12,0;10,5;-26,0;24,2;1599
2022-05-02 22:00:00;11,1;99620;71;0,0059;0,0;1,8;276;3,0;0,19;-1,74;0;0;0;27,7;30,3;30,1;31,2;12,9;13,1;12,1;10,5;-26,0;24,0;1572
2022-05-02 23:00:00;10,5;99627;72;0,0057;0,0;2,0;262;3,0;-0,27;-1,95;0;0;0;27,7;30,3;30,1;31,2;12,6;12,9;12,1;10,5;-25,9;24,0;1654
2022-05-03 00:00:00;10,6;99615;72;0,0057;0,0;2,4;276;4,3;0,25;-2,41;0;0;0;27,6;30,3;30,1;31,2;12,3;12,7;12,1;10,5;-26,0;23,9;1929
2022-05-03 01:00:00;10,4;99587;72;0,0057;0,0;2,0;286;3,4;0,58;-1,91;0;0;0;27,6;30,3;30,1;31,2;12,0;12,5;12,0;10,5;-26,0;23,9;1600
2022-05-03 02:00:00;10,0;99578;74;0,0057;0,0;2,3;287;4,1;0,69;-2,22;0;0;0;27,6;30,4;30,0;31,2;11,9;12,3;12,0;10,6;-26,0;23,8;1584
2022-05-03 03:00:00;9,5;99568;76;0,0056;0,0;2,7;296;4,8;1,23;-2,39;0;0;0;27,6;30,4;30,0;31,2;11,8;12,2;11,9;10,6;-26,0;23,7;1802
2022-05-03 04:00:00;8,9;99583;77;0,0055;0,0;2,7;299;4,5;1,31;-2,33;6;0;0;27,6;30,4;30,0;31,2;11,6;12,0;11,9;10,6;-26,0;23,5;1675
2022-05-03 05:00:00;8,6;99622;78;0,0055;0,0;2,8;300;5,5;1,46;-2,4;44;0;0;27,6;30,4;30,0;31,2;11,5;11,9;11,8;10,6;-26,0;23,5;1665
2022-05-03 06:00:00;9,0;99642;79;0,0057;0,0;3,4;314;5,4;2,38;-2,4;140;0;0;27,6;30,4;30,0;31,2;11,4;11,8;11,8;10,6;-26,0;23,4;1679
2022-05-03 07:00:00;10,2;99635;78;0,0061;0,0;2,9;312;4,6;1,94;-2,05;255;0;0;27,5;30,4;30,0;31,2;11,5;11,7;11,7;10,7;-25,9;23,5;1576
2022-05-03 08:00:00;10,8;99645;76;0,0061;0,0;3,6;320;5,5;2,76;-2,21;327;0;0;27,5;30,3;30,0;31,2;11,7;11,7;11,7;10,7;-25,9;23,4;1661
2022-05-03 09:00:00;13,1;99672;73;0,0069;0,0;3,4;331;6,1;2,97;-1,61;478;0;0;27,4;30,3;30,0;31,2;12,3;11,8;11,6;10,7;-26,0;23,3;1664
2022-05-03 10:00:00;15,1;99658;66;0,0071;0,0;3,6;324;6,4;2,87;-2,08;558;0;0;27,3;30,3;30,0;31,2;13,1;12,0;11,6;10,7;-26,1;23,2;1617
2022-05-03 11:00:00;16,2;99603;61;0,007;0,0;3,6;340;6,6;3,35;-1,22;621;0;0;27,1;30,2;30,0;31,2;13,9;12,4;11,6;10,7;-26,2;22,8;1701
2022-05-03 12:00:00;16,6;99572;56;0,0066;0,0;3,7;345;7,6;3,58;-0,96;553;0;0;26,9;30,2;30,0;31,2;14,7;12,8;11,6;10,7;-26,3;22,7;1677
2022-05-03 13:00:00;17,2;99540;52;0,0063;0,0;3,5;172;6,5;3,48;-0,46;579;0;0;26,7;30,1;30,0;31,2;15,2;13,2;11,6;10,7;-26,5;23,1;1675
2022-05-03 14:00:00;17,5;99510;50;0,0063;0,0;3,2;342;5,6;3,04;-0,92;491;0;0;26,5;30,1;29,9;31,2;15,6;13,6;11,7;10,7;-26,6;22,8;1700
2022-05-03 15:00:00;17,4;99482;50;0,0063;0,0;4,2;333;6,8;3,78;-1,92;394;0;0;26,3;30,0;29,9;31,2;15,7;13,8;11,8;10,7;-26,6;22,6;1701
2022-05-03 16:00:00;17,2;99462;48;0,006;0,0;4,1;336;6,7;3,73;-1,68;278;0;0;26,2;30,0;29,9;31,2;15,5;14,0;12,0;10,7;-26,6;23,0;1676
2022-05-03 17:00:00;16,6;99492;48;0,0056;0,0;3,5;335;5,7;3,18;-1,46;131;0;0;26,1;30,0;29,9;31,2;15,1;14,0;12,1;10,7;-26,6;22,9;1711
2022-05-03 18:00:00;14,9;99518;51;0,0054;0,0;2,2;314;3,7;1,54;-1,56;32;0;0;26,1;30,0;29,9;31,2;14,6;13,9;12,2;10,7;-26,6;22,7;1643
2022-05-03 19:00:00;12,8;99562;57;0,0053;0,0;1,4;271;2,4;0,05;-1,39;0;0;0;26,1;30,0;29,9;31,2;14,0;13,8;12,3;10,8;-26,6;22,8;1666
2022-05-03 20:00:00;11,6;99617;61;0,0053;0,0;1,6;273;2,7;0,1;-1,58;0;0;0;26,1;30,0;29,9;31,2;13,5;13,6;12,3;10,8;-26,6;22,6;1661
2022-05-03 21:00:00;10,5;99650;67;0,0053;0,0;1,4;298;2,8;0,66;-1,23;0;0;0;26,0;30,0;29,9;31,2;13,0;13,3;12,3;10,8;-26,6;22,7;1684
2022-05-03 22:00:00;10,1;99670;72;0,0056;0,0;1,9;275;3,1;0,2;-1,87;0;0;0;26,0;30,0;29,9;31,2;12,6;13,1;12,4;10,8;-26,6;22,7;1749
2022-05-03 23:00:00;9,7;99678;76;0,0057;0,0;1,9;266;3,2;-0,13;-1,87;0;0;0;26,0;30,0;29,9;31,2;12,3;12,8;12,3;10,8;-26,6;22,6;1719
2022-05-04 00:00:00;8,9;99673;82;0,0058;0,0;1,8;267;2,9;-0,09;-1,81;0;0;0;26,0;30,0;29,9;31,2;12,1;12,6;12,3;10,8;-26,6;22,7;1700
2022-05-04 01:00:00;8,4;99670;86;0,0059;0,0;1,6;282;2,7;0,35;-1,57;0;0;0;26,0;30,0;29,9;31,2;11,9;12,4;12,2;10,8;-26,6;22,7;1734
2022-05-04 02:00:00;8,1;99678;87;0,0059;0,0;1,8;279;3,2;0,37;-1,78;0;0;0;26,0;30,0;29,9;31,2;11,6;12,2;12,2;10,9;-26,6;22,6;1662
2022-05-04 03:00:00;8,5;99662;87;0,0061;0,0;2,2;294;3,9;0,92;-2,02;0;0;0;26,0;30,0;29,9;31,2;11,5;12,1;12,1;10,9;-26,6;22,6;1597
2022-05-04 04:00:00;7,9;99663;88;0,0058;0,0;2,4;304;4,2;1,38;-1,94;10;0;0;26,1;30,0;29,9;31,2;11,4;12,0;12,0;10,9;-26,6;22,4;1733
2022-05-04 05:00:00;7,9;99690;88;0,0058;0,0;2,6;308;4,5;1,62;-1,96;50;0;0;26,0;30,0;29,9;31,2;11,3;11,8;12,0;10,9;-26,6;22,3;1725
2022-05-04 06:00:00;8,3;99697;87;0,006;0,0;2,5;329;4,1;2,13;-1,26;109;0;0;26,0;30,0;29,9;31,2;11,3;11,7;11,9;10,9;-26,6;22,1;1637
2022-05-04 07:00:00;9,4;99675;86;0,0064;0,0;2,8;331;4,4;2,41;-1,27;261;0;0;26,0;30,0;29,9;31,2;11,4;11,7;11,8;10,9;-26,6;22,0;1669
2022-05-04 08:00:00;10,7;99667;83;0,0067;0,0;3,2;335;5,3;2,92;-1,37;397;0;0;26,0;30,0;29,8;31,1;11,7;11,7;11,8;10,9;-26,6;21,7;1597
2022-05-04 09:00:00;12,1;99675;79;0,007;0,0;3,3;333;6,0;2,91;-1,42;500;0;0;25,9;30,0;29,8;31,1;12,3;11,8;11,7;10,9;-26,6;21,5;1641
2022-05-04 10:00:00;13,0;99678;76;0,0071;0,0;3,5;329;6,3;2,86;-1,75;539;0;0;25,7;29,9;29,8;31,1;13,0;12,1;11,7;10,9;-26,8;21,4;1639
2022-05-04 11:00:00;14,4;99652;71;0,0073;0,0;3,2;334;6,0;2,91;-1,41;643;0;0;25,5;29,9;29,8;31,1;13,8;12,4;11,7;10,9;-26,9;21,4;1670
2022-05-04 12:00:00;15,4;99602;68;0,0074;0,0;3,2;332;6,0;2,8;-1,46;615;0;0;25,3;29,8;29,8;31,1;14,7;12,8;11,7;11,0;-27,2;21,4;1641
2022-05-04 13:00:00;15,9;99570;64;0,0072;0,0;3,7;328;7,3;3,16;-1,93;532;0;0;25,1;29,8;29,7;31,1;15,4;13,3;11,8;10,9;-27,3;21,5;1704
2022-05-04 14:00:00;16,1;99568;60;0,0069;0,0;3,8;338;6,6;3,53;-1,37;414;0;0;25,0;29,7;29,7;31,1;15,6;13,6;11,9;11,0;-27,4;21,5;1706
2022-05-04 15:00:00;16,1;99550;57;0,0065;0,0;3,5;342;6,4;3,3;-1,01;269;0;0;24,9;29,7;29,7;31,1;15,5;13,9;12,0;10,9;-27,5;21,3;1758
2022-05-04 16:00:00;16,6;99532;46;0,0054;0,0;3,8;338;6,2;3,5;-1,44;274;0;0;24,9;29,6;29,7;31,1;15,3;14,0;12,1;10,9;-27,6;21,0;1735
2022-05-04 17:00:00;16,0;99557;47;0,0053;0,0;3,2;347;5,3;3,09;-0,71;142;0;0;24,8;29,6;29,7;31,1;14,9;14,0;12,2;11,0;-27,6;21,1;1782
2022-05-04 18:00:00;14,4;99583;51;0,0053;0,0;2,4;354;4,1;2,42;-0,21;50;0;0;24,8;29,6;29,7;31,1;14,5;13,9;12,3;11,0;-27,6;21,0;2737
2022-05-04 19:00:00;12,5;99630;54;0,0049;0,0;1,4;304;1,9;0,67;-0,96;2;0;0;24,8;29,6;29,7;31,1;13,8;13,7;12,4;11,0;-27,6;21,0;1837
2022-05-04 20:00:00;10,5;99688;64;0,0051;0,0;1,3;233;1,9;-0,75;-1,0;0;0;0;24,7;29,6;29,7;31,1;13,2;13,5;12,4;11,0;-27,6;21,0;1720
2022-05-04 21:00:00;8,2;99735;74;0,005;0,0;1,3;231;1,9;-0,81;-1,02;0;0;0;24,7;29,6;29,7;31,1;12,7;13,2;12,4;11,0;-27,6;20,8;1750
2022-05-04 22:00:00;7,1;99795;77;0,0049;0,0;0,9;186;2,0;-0,52;-0,26;0;0;0;24,7;29,6;29,7;31,1;12,2;12,9;12,4;11,0;-27,6;20,8;1718
2022-05-04 23:00:00;6,6;99822;80;0,0048;0,0;0,6;182;1,2;0,15;0,09;0;0;0;24,7;29,6;29,7;31,1;11,8;12,6;12,4;11,0;-27,6;20,9;1720
2022-05-05 00:00:00;6,3;99828;81;0,0048;0,0;0,7;160;1,3;0,1;0,22;0;0;0;24,7;29,6;29,7;31,1;11,5;12,3;12,3;11,0;-27,6;20,8;1653
2022-05-05 01:00:00;5,2;99827;84;0,0046;0,0;0,8;97;1,2;-0,12;0,73;0;0;0;24,7;29,6;29,7;31,1;11,1;12,1;12,3;11,0;-27,6;20,7;1700
2022-05-05 02:00:00;4,8;99850;86;0,0046;0,0;0,7;108;1,1;-0,22;0,64;0;0;0;24,7;29,6;29,7;31,1;10,7;11,8;12,2;11,0;-27,5;20,8;1746
2022-05-05 03:00:00;4,7;99883;86;0,0046;0,0;0,6;128;0,9;-0,32;0,47;0;0;0;24,7;29,6;29,7;31,1;10,4;11,6;12,1;11,1;-27,5;20,8;1739
2022-05-05 04:00:00;4,9;99883;88;0,0048;0,0;0,7;108;1,3;-0,2;0,58;11;0;0;24,7;29,6;29,7;31,1;10,2;11,3;12,0;11,1;-27,4;20,9;1647
2022-05-05 05:00:00;6,2;99928;88;0,0052;0,0;0,6;170;1,0;-0,16;0,39;59;0;0;24,7;29,6;29,7;31,1;10,1;11,2;11,9;11,1;-27,4;20,9;1800
2022-05-05 06:00:00;10,4;99950;85;0,0066;0,0;0,9;144;1,9;0,51;0,28;203;0;0;24,7;29,6;29,7;31,1;10,2;11,0;11,8;11,1;-27,4;21,1;1578
2022-05-05 07:00:00;12,5;99968;74;0,0067;0,0;2,6;333;4,4;2,26;-1,15;270;0;0;24,6;29,6;29,6;31,1;10,6;11,0;11,7;11,1;-27,4;21,0;1649
2022-05-05 08:00:00;13,2;100005;72;0,0068;0,0;2,9;352;4,9;2,82;-0,35;357;0;0;24,6;29,6;29,6;31,1;11,2;11,1;11,6;11,1;-27,4;20,9;1641
2022-05-05 09:00:00;14,1;100030;68;0,0068;0,0;1,8;259;3,5;1,74;-0,27;417;0;0;24,5;29,5;29,6;31,1;11,8;11,3;11,5;11,1;-27,6;20,8;1610
2022-05-05 10:00:00;15,3;100045;63;0,0068;0,0;1,5;330;3,6;1,16;-0,47;516;0;0;24,4;29,5;29,6;31,1;12,5;11,6;11,5;11,1;-27,8;20,8;1539
2022-05-05 11:00:00;15,9;100043;62;0,007;0,0;1,9;339;4,0;1,75;-0,63;506;0;0;24,3;29,4;29,6;31,1;13,4;12,0;11,5;11,1;-28,0;20,8;892
2022-05-05 12:00:00;16,2;100040;60;0,0068;0,0;2,4;349;4,8;2,31;-0,42;416;0;0;24,2;29,4;29,6;31,1;14,0;12,4;11,5;11,1;-28,2;20,8;1647
2022-05-05 13:00:00;17,1;100030;57;0,0069;0,0;2,5;345;4,9;2,4;-0,63;551;0;0;24,0;29,3;29,5;31,1;14,5;12,8;11,6;11,1;-28,5;20,4;1599
2022-05-05 14:00:00;17,9;99992;55;0,007;0,0;2,9;342;5,3;2,75;-0,82;544;0;0;23,8;29,2;29,5;31,1;15,1;13,2;11,7;11,1;-28,8;20,4;1630
2022-05-05 15:00:00;17,4;100012;53;0,0066;0,0;3,0;347;5,4;2,95;-0,62;329;0;0;23,7;29,2;29,5;31,1;15,3;13,5;11,8;11,1;-29,1;20,4;1647
2022-05-05 16:00:00;17,5;100025;52;0,0064;0,0;2,8;178;5,1;2,68;-0,06;218;0;0;23,6;29,1;29,5;31,0;15,1;13,7;11,9;11,1;-29,1;20,5;1631
2022-05-05 17:00:00;17,0;100048;52;0,0063;0,0;1,7;6;3,3;1,68;0,21;96;0;0;23,5;29,1;29,5;31,0;14,8;13,8;12,0;11,1;-29,0;20,2;1604
2022-05-05 18:00:00;15,9;100090;54;0,006;0,0;1,2;166;2,0;1,12;-0,11;30;0;0;23,5;29,1;29,5;31,0;14,4;13,7;12,1;11,1;-29,0;20,3;1693
2022-05-05 19:00:00;13,8;100155;59;0,0058;0,0;1,3;276;1,7;0,1;-1,17;1;0;0;23,5;29,1;29,5;31,0;13,9;13,6;12,2;11,1;-29,0;20,2;1810
2022-05-05 20:00:00;12,1;100228;68;0,006;0,0;1,6;260;2,5;-0,29;-1,6;0;0;0;23,5;29,1;29,4;31,0;13,4;13,4;12,3;11,1;-29,0;20,0;1720
2022-05-05 21:00:00;11,3;100267;72;0,006;0,0;1,8;256;2,6;-0,43;-1,78;0;0;0;23,5;29,1;29,4;31,0;12,9;13,2;12,3;11,0;-29,0;20,1;2062
2022-05-05 22:00:00;10,5;100297;74;0,0059;0,0;1,4;257;2,5;-0,31;-1,41;0;0;0;23,5;29,1;29,4;31,0;12,6;13,0;12,4;11,1;-29,0;20,2;1676
2022-05-05 23:00:00;8,0;100332;81;0,0054;0,0;0,7;96;1,3;-0,08;0,66;0;0;0;23,5;29,1;29,4;31,0;12,2;12,8;12,3;11,1;-29,1;20,0;1635
2022-05-06 00:00:00;6,5;100342;85;0,0051;0,0;0,6;126;1,1;-0,33;0,51;0;0;0;23,5;29,1;29,4;31,0;11,8;12,5;12,3;11,1;-29,0;20,1;1763
2022-05-06 01:00:00;6,0;100353;87;0,005;0,0;0,6;146;1,2;-0,31;0,32;0;0;0;23,5;29,1;29,4;31,0;11,4;12,3;12,2;11,1;-29,0;20,1;1672
2022-05-06 02:00:00;5,5;100352;88;0,005;0,0;0,8;134;1,1;-0,44;0,52;0;0;0;23,5;29,1;29,4;31,0;11,0;12,0;12,2;11,1;-29,0;20,0;1633
2022-05-06 03:00:00;4,9;100355;89;0,0048;0,0;0,6;152;1,0;-0,45;0,28;0;0;0;23,5;29,1;29,4;31,0;10,6;11,8;12,1;11,1;-29,0;19,9;1599
2022-05-06 04:00:00;4,9;100360;91;0,0049;0,0;0,6;113;0,9;-0,25;0,5;18;0;0;23,5;29,1;29,4;31,0;10,3;11,5;12,0;11,1;-28,9;20,0;1750
2022-05-06 05:00:00;6,3;100400;95;0,0056;0,0;0,6;114;1,0;-0,23;0,56;82;0;0;23,5;29,1;29,4;31,0;10,1;11,3;11,9;11,1;-28,9;20,0;1677
2022-05-06 06:00:00;11,2;100405;89;0,0073;0,0;0,8;225;1,6;0,49;0,06;203;0;0;23,5;29,1;29,4;31,0;10,1;11,1;11,8;11,2;-28,9;20,0;1576
2022-05-06 07:00:00;13,1;100407;81;0,0076;0,0;1,9;346;3,5;1,85;-0,41;327;0;0;23,5;29,1;29,4;31,0;10,3;11,0;11,7;11,2;-28,9;20,3;1662
2022-05-06 08:00:00;14,8;100402;72;0,0076;0,0;1,7;347;3,2;1,63;-0,32;466;0;0;23,5;29,1;29,4;31,0;10,9;11,0;11,6;11,2;-29,0;20,6;1582
2022-05-06 09:00:00;nan;nan;nan;nan;0,0;nan;nan;nan;nan;nan;nan;0;nan;23,4;29,0;29,4;31,0;11,8;11,3;11,6;11,2;-29,2;nan;nan
2022-05-06 10:00:00;17,8;100372;55;0,007;0,0;2,0;181;4,8;1,78;-0,14;662;0;0;23,2;28,9;29,4;31,0;12,9;11,6;11,5;11,2;-29,8;20,7;1513
2022-05-06 11:00:00;18,4;100328;49;0,0064;0,0;2,2;342;4,9;2,09;-0,67;638;0;0;23,0;28,8;29,3;31,0;14,0;12,1;11,5;11,1;-30,4;20,6;1624
2022-05-06 12:00:00;19,2;100280;43;0,006;0,0;2,8;188;6,9;2,74;0,32;678;0;0;22,8;28,7;29,3;31,0;15,0;12,7;11,6;11,2;-31,1;20,6;1602
2022-05-06 13:00:00;19,2;100277;46;0,0063;0,0;2,9;223;6,4;2,47;-0,73;558;0;0;22,6;28,6;29,3;31,0;15,7;13,2;11,7;11,2;-31,7;20,6;1626
2022-05-06 14:00:00;19,4;100240;47;0,0066;0,0;2,7;254;5,6;2,57;-0,72;534;0;0;22,4;28,5;29,2;31,0;16,1;13,7;11,8;11,1;-32,3;20,6;1690
2022-05-06 15:00:00;19,6;100225;48;0,0067;0,0;2,5;330;5,6;2,17;-1,22;449;0;0;22,3;28,4;29,2;31,0;16,1;14,0;11,9;11,1;-32,6;20,7;1682
2022-05-06 16:00:00;19,1;100228;49;0,0067;0,0;2,9;342;5,1;2,7;-0,89;268;0;0;22,2;28,4;29,2;31,0;16,1;14,2;12,1;11,1;-32,7;20,6;1560
2022-05-06 17:00:00;18,3;100232;51;0,0066;0,0;2,8;340;4,4;2,65;-0,96;135;0;0;22,1;28,4;29,2;31,0;15,7;14,3;12,2;11,1;-32,6;20,5;1642
2022-05-06 18:00:00;17,2;100230;54;0,0065;0,0;1,4;322;2,3;1,15;-0,78;33;0;0;22,2;28,3;29,2;31,0;15,3;14,3;12,4;11,1;-32,5;20,6;1591
2022-05-06 19:00:00;15,4;100243;59;0,0064;0,0;1,4;257;1,9;-0,3;-1,33;1;0;0;22,2;28,3;29,1;31,0;14,7;14,2;12,5;11,1;-32,4;20,7;1522
2022-05-06 20:00:00;13,8;100285;64;0,0063;0,0;1,4;253;2,2;-0,39;-1,33;0;0;0;22,1;28,3;29,1;31,0;14,1;14,0;12,6;11,1;-32,4;20,6;1623
2022-05-06 21:00:00;11,4;100272;73;0,0061;0,0;0,9;168;1,5;-0,53;0,01;0;0;0;22,0;28,3;29,1;31,0;13,6;13,8;12,6;11,2;-32,4;20,7;1673
2022-05-06 22:00:00;9,4;100272;78;0,0057;0,0;0,6;156;0,9;-0,46;0,18;0;0;0;22,0;28,3;29,1;31,0;13,1;13,5;12,6;11,1;-32,4;20,8;1705
2022-05-06 23:00:00;8,7;100270;81;0,0056;0,0;0,5;133;0,9;-0,33;0,35;0;0;0;21,9;28,3;29,1;31,0;12,6;13,2;12,6;11,2;-32,4;20,6;1701
2022-05-07 00:00:00;7,9;100262;83;0,0055;0,0;0,7;133;0,9;-0,44;0,48;0;0;0;21,9;28,3;29,1;31,0;12,1;12,9;12,6;11,2;-32,4;21,0;1637
2022-05-07 01:00:00;7,5;100215;85;0,0055;0,0;0,5;129;0,8;-0,28;0,4;0;0;0;22,0;28,3;29,1;31,0;11,8;12,7;12,6;11,2;-32,4;21,0;1805
2022-05-07 02:00:00;7,1;100198;86;0,0054;0,0;0,6;144;0,8;-0,45;0,31;0;0;0;21,9;28,3;29,1;31,0;11,4;12,4;12,5;11,2;-32,4;21,1;1679
2022-05-07 03:00:00;6,9;100200;87;0,0054;0,0;0,5;144;0,8;-0,39;0,24;0;0;0;21,9;28,3;29,1;31,0;11,1;12,1;12,4;11,2;-32,3;21,2;1726
2022-05-07 04:00:00;7,0;100195;89;0,0055;0,0;0,6;139;0,9;-0,44;0,4;25;0;0;21,9;28,3;29,1;31,0;10,9;11,9;12,3;11,2;-32,3;21,2;1685
2022-05-07 05:00:00;8,8;100200;89;0,0062;0,0;0,5;101;0,8;-0,11;0,49;96;0;0;21,9;28,3;29,1;31,0;10,8;11,7;12,2;11,2;-32,3;20,9;1695
2022-05-07 06:00:00;12,0;100212;85;0,0075;0,0;0,5;84;1,0;-0,02;0,49;152;0;0;21,9;28,3;29,1;31,0;10,9;11,6;12,1;11,3;-32,3;20,9;1628
2022-05-07 07:00:00;15,3;100208;74;0,008;0,0;0,8;106;1,6;-0,24;0,79;277;0;0;21,9;28,3;29,1;31,0;11,2;11,6;12,0;11,3;-32,3;20,8;1644
2022-05-07 08:00:00;17,5;100205;62;0,0078;0,0;1,1;281;2,3;0,98;0,02;452;0;0;21,9;28,2;29,1;31,0;11,7;11,6;11,9;11,3;-32,5;20,7;1644
2022-05-07 09:00:00;18,8;100193;56;0,0076;0,0;1,1;178;2,7;0,99;-0,02;506;0;0;21,8;28,2;29,1;30,9;12,6;11,9;11,9;11,3;-33,0;20,7;1573
2022-05-07 10:00:00;19,6;100173;54;0,0076;0,0;1,4;350;3,1;1,34;-0,25;605;0;0;21,7;28,1;29,1;30,9;13,5;12,2;11,9;11,3;-33,7;20,9;1608
2022-05-07 11:00:00;20,2;100155;52;0,0077;0,0;1,8;258;4,1;1,69;-0,44;640;0;0;21,5;28,0;29,0;30,9;14,6;12,7;11,9;11,3;-34,9;21,1;1424
2022-05-07 12:00:00;20,9;100118;49;0,0075;0,0;1,5;31;3,7;1,25;0,62;602;0;0;21,3;27,9;29,0;30,9;15,5;13,2;11,9;11,3;-36,0;21,5;1647
2022-05-07 13:00:00;20,8;100075;50;0,0076;0,0;2,0;270;5,0;1,62;-0,44;478;0;0;21,2;27,8;28,9;30,9;16,1;13,8;12,0;11,3;-36,8;21,6;1592
2022-05-07 14:00:00;20,5;100053;51;0,0076;0,0;2,5;338;4,9;2,36;-0,92;438;0;0;21,1;27,7;28,9;30,9;16,3;14,1;12,1;11,3;-37,3;22,1;1641
2022-05-07 15:00:00;19,8;100048;54;0,0078;0,0;4,5;325;7,8;3,64;-2,57;369;0;0;21,0;27,6;28,9;30,9;16,4;14,4;12,3;11,3;-37,8;22,3;1656
2022-05-07 16:00:00;19,2;100060;56;0,0077;0,0;3,5;312;5,8;2,37;-2,56;246;0;0;20,9;27,5;28,9;30,9;16,2;14,6;12,4;11,3;-38,0;22,6;1741
2022-05-07 17:00:00;18,7;100097;56;0,0076;0,0;2,8;225;4,8;2,34;-0,93;106;0;0;20,9;27,5;28,8;30,9;15,9;14,6;12,6;11,3;-37,8;22,8;1635
2022-05-07 18:00:00;15,8;100170;72;0,008;1,86;2,0;179;3,8;1,78;-0,02;18;0;0;20,9;27,5;28,8;30,9;15,5;14,6;12,7;11,3;-37,6;22,9;1630
2022-05-07 19:00:00;13,3;100240;89;0,0084;1,37;1,9;264;3,0;-0,2;-1,83;0;0;0;20,9;27,5;28,8;30,9;15,1;14,5;12,8;11,3;-37,6;23,2;1534
2022-05-07 20:00:00;13,1;100295;86;0,0081;0,0;1,7;294;2,8;0,7;-1,49;0;0;0;21,0;27,4;28,8;30,9;14,7;14,4;12,9;11,3;-37,6;23,4;1603
2022-05-07 21:00:00;12,3;100313;86;0,0076;0,0;1,4;262;2,4;-0,18;-1,36;0;0;0;21,0;27,4;28,8;30,9;14,4;14,2;12,9;11,3;-37,5;23,7;1527
2022-05-07 22:00:00;11,7;100302;86;0,0074;0,03;1,6;265;2,7;-0,13;-1,55;0;0;0;21,1;27,4;28,8;30,9;14,0;14,1;12,9;11,3;-37,5;23,7;1590
2022-05-07 23:00:00;11,0;100335;88;0,0072;0,03;1,2;280;2,4;0,2;-1,18;0;0;0;21,1;27,4;28,8;30,9;13,7;13,9;13,0;11,4;-37,5;23,8;1500
2022-05-08 00:00:00;10,8;100340;90;0,0072;0,05;1,4;269;2,3;-0,01;-1,36;0;0;0;21,1;27,4;28,8;30,9;13,4;13,7;13,0;11,4;-37,5;23,4;1564
2022-05-08 01:00:00;10,3;100340;91;0,0071;0,03;1,2;282;2,2;0,24;-1,18;0;0;0;21,1;27,4;28,8;30,9;13,1;13,5;12,9;11,4;-37,4;23,6;1489
2022-05-08 02:00:00;10,2;100360;92;0,0071;0,05;1,2;300;1,9;0,55;-0,99;0;0;0;21,1;27,4;28,8;30,9;12,9;13,3;12,9;11,4;-37,4;23,4;1554
2022-05-08 03:00:00;10,2;100382;93;0,0072;0,12;1,0;295;1,6;0,42;-0,89;0;0;0;21,1;27,4;28,8;30,9;12,7;13,2;12,8;11,4;-37,4;23,6;1574
2022-05-08 04:00:00;11,1;100375;93;0,0077;0,0;1,2;309;2,1;0,8;-0,95;11;0;0;21,1;27,4;28,8;30,9;12,6;13,0;12,8;11,4;-37,4;23,7;1545
2022-05-08 05:00:00;11,4;100403;97;0,0081;0,0;2,3;331;3,8;1,99;-1,06;50;0;0;21,1;27,4;28,8;30,9;12,6;12,9;12,8;11,4;-37,3;24,3;1579
2022-05-08 06:00:00;11,3;100447;97;0,0081;0,0;2,5;345;3,9;2,41;-0,62;72;0;0;21,2;27,4;28,8;30,9;12,7;12,9;12,7;11,5;-37,2;24,4;1486
2022-05-08 07:00:00;11,6;100485;96;0,0081;0,0;2,6;349;4,0;2,57;-0,48;142;0;0;21,2;27,4;28,8;30,9;12,8;12,8;12,6;11,5;-37,2;24,5;1486
2022-05-08 08:00:00;12,2;100512;92;0,0082;0,0;2,8;347;4,2;2,68;-0,58;200;0;0;21,2;27,4;28,8;30,9;13,0;12,9;12,6;11,5;-37,2;24,4;1481